TOURFACTS.DK  
Stats and Facts from Tour de France.

Tour de France 2019 starts in 348 days
  Riders   Stages   Teams   Summits   Yearly  


 
Search by year

After 2018 - Stage 14:
 15000 starters.
  5163 different riders.
  639 teams.
  2246 stages.
  456 restdays.
  441957.60 km.
  5678 abandonnees.


Top 3
GC
Christopher Froome86:20:55
Rigoberto Urán86:21:49
Romain Bardet86:23:15
Climb
Warren Barguil169 pt.
Primoz Roglic80 pt.
Thomas De Gendt64 pt.
Sprint
Michael Matthews359 pt.
André Greipel234 pt.
Edvald Boasson Hagen220 pt.
Youth
Simon Yates86:27:09
Louis Meintjes86:29:15
Emanuel Buchmann86:54:16
Facts from Tour de France 1990
  |   Stages.  |   Stage winners.  |   Days in yellow  |   Average speed.  |   Route.  |   Teams.  |   All riders.  |   Rookies.  |  

  |   Withdrawls.  |   GC.  |   Polka  |   Green  |   White  |   Summits. (In tour)  |   Miscellaneous.  |  

Stage 10 on July 10th. 1990
         Owning:    Ronan Pensec    
Pick a stage:  Pro 1 2 3 4 5 6 7 8 9 10 11 12 13 14 15 16 17 18 19 20 21
From: Genève    To: Saint-GervaisDist:118.50 km.
Cat: 1Col de la Colombiere FRAThierry Claveyrolat
30 points
 
Cat: 2Col de l'Aravis - ThônesFRAThierry Claveyrolat
20 points
 
Cat: 1Cret Bettex - Le FayetFRAThierry Claveyrolat
30 points
 

Average speed for all riders in stage:  33,159 km./hr.
    Place:Name:Team:Time:Km/h:
FRAThierry ClaveyrolatFRAR.M.O.-Mavic-Liberia03:24:31  +  00:00:00=34,765 
DDRUwe AmplerNLDPDM-Concorde03:26:25  +  00:01:54=34,445 
FRACharly MottetFRAR.M.O.-Mavic-Liberia03:26:25  +  00:01:54=34,445 
4 COLReynel MontoyaCOLRyalcao-Postobon03:26:41  +  00:02:10=34,400 
5 ESPMarino LejarretaESPO.N.C.E.03:26:41  +  00:02:10=34,400 
6 FRAÉric BoyerFRAZ-Peugeot03:26:41  +  00:02:10=34,400 
7 ESPPedro DelgadoESPBanesto03:26:41  +  00:02:10=34,400 
8 SUIGuido WinterbergCHEHelvetia-La Suisse03:26:42  +  00:02:11=34,398 
9 ITARoberto ContiITAAriostea03:26:55  +  00:02:24=34,362 
10 USAGreg LeMondFRAZ-Peugeot03:27:00  +  00:02:29=34,348 
11 NEDSteven RooksNLDPanasonic-Sportlife03:27:00  +  00:02:29=34,348 
12 ESPMiguel IndurainESPBanesto03:27:00  +  00:02:29=34,348 
13 ESPRaúl AlcaláNLDPDM-Concorde03:27:00  +  00:02:29=34,348 
14 BELClaude CriquielionBELLotto-Superclub03:27:00  +  00:02:29=34,348 
15 IRLSean KellyNLDPDM-Concorde03:27:00  +  00:02:29=34,348 
16 FRARonan PensecFRAZ-Peugeot03:27:00  +  00:02:29=34,348 
17 ESPPello RuizESPO.N.C.E.03:27:00  +  00:02:29=34,348 
18 FRALaurent BiondiBELHistor-Sigma03:27:00  +  00:02:29=34,348 
19 NEDErik BreukinkNLDPDM-Concorde03:27:00  +  00:02:29=34,348 
20 ITAClaudio ChiappucciITACarrera Jeans-Vagabond03:27:00  +  00:02:29=34,348 
21 COLWilliam PalacioCOLRyalcao-Postobon03:27:00  +  00:02:29=34,348 
22 COLNelson RodriguezESPKelme-Ibexpress03:27:00  +  00:02:29=34,348 
23 FRAFabrice PhilipotFRACastorama-Raleigh03:27:00  +  00:02:29=34,348 
24 SUIGianni BugnoITAChateau d'Ax03:27:00  +  00:02:29=34,348 
25 FRAGilles DelionCHEHelvetia-La Suisse03:27:00  +  00:02:29=34,348 
26 USAAndy HampstenUSA7-Eleven-Hoonved03:27:00  +  00:02:29=34,348 
27 COLFabio Parra PintoESPKelme-Ibexpress03:27:10  +  00:02:39=34,320 
28 FRAPascal SimonFRACastorama-Raleigh03:27:17  +  00:02:46=34,301 
29 ESPMiguel Angel MartinezESPO.N.C.E.03:27:38  +  00:03:07=34,243 
30 ESPAnselmo FuerteESPO.N.C.E.03:27:38  +  00:03:07=34,243 
31 IRLStephen RocheBELHistor-Sigma03:27:41  +  00:03:10=34,235 
32 ESPEduardo ChozasESPO.N.C.E.03:27:59  +  00:03:28=34,185 
33 FRABruno CornilletFRAZ-Peugeot03:27:59  +  00:03:28=34,185 
34 COLGerardo MoncadaCOLRyalcao-Postobon03:28:12  +  00:03:41=34,150 
35 COLAbelardo RondonESPBanesto03:28:12  +  00:03:41=34,150 
36 URSDimitri KonychevITAAlfa Lum03:28:12  +  00:03:41=34,150 
37 BELGuy NulensNLDPanasonic-Sportlife03:28:12  +  00:03:41=34,150 
38 COLAlvaro MejiaCOLRyalcao-Postobon03:28:16  +  00:03:45=34,139 
39 FRAPascal LinoFRAR.M.O.-Mavic-Liberia03:28:16  +  00:03:45=34,139 
40 BELJohan BruyneelBELLotto-Superclub03:28:16  +  00:03:45=34,139 
41 SUIJörg MüllerNLDTVM03:28:24  +  00:03:53=34,117 
42 URSPiotr UgrumovITAAlfa Lum03:28:38  +  00:04:07=34,079 
43 SUIPascal RichardCHEHelvetia-La Suisse03:28:38  +  00:04:07=34,079 
44 DENBjarne RiisFRACastorama-Raleigh03:28:38  +  00:04:07=34,079 
45 SUIBeat BreuCHEWeinmann-La Suisse-S.M.M. Uste..03:28:38  +  00:04:07=34,079 
46 FRAPascal LanceNLDToshiba03:28:38  +  00:04:07=34,079 
47 SUINiki RüttimannCHEHelvetia-La Suisse03:28:38  +  00:04:07=34,079 
48 FRAJerôme SimonFRAZ-Peugeot03:28:38  +  00:04:07=34,079 
49 BELRudy DhaenensNLDPDM-Concorde03:28:38  +  00:04:07=34,079 
50 CANSteve BauerUSA7-Eleven-Hoonved03:28:38  +  00:04:07=34,079 
51 NEDFrans MaassenNLDBuckler03:28:38  +  00:04:07=34,079 
52 FRAJean-Claude BagotFRAR.M.O.-Mavic-Liberia03:28:38  +  00:04:07=34,079 
53 ESPJesus RodriguezESPBanesto03:28:38  +  00:04:07=34,079 
54 SCORobert MillarFRAZ-Peugeot03:28:38  +  00:04:07=34,079 
55 COLOscar VargasCOLRyalcao-Postobon03:29:03  +  00:04:32=34,011 
56 BELEric Van LanckerNLDPanasonic-Sportlife03:29:29  +  00:04:58=33,941 
57 COLNéstor MoraESPKelme-Ibexpress03:29:39  +  00:05:08=33,914 
58 NEDJos Van AertNLDPDM-Concorde03:29:52  +  00:05:21=33,879 
59 FRADominique ArnaudESPBanesto03:29:52  +  00:05:21=33,879 
60 ESPJulian GorospeESPBanesto03:29:52  +  00:05:21=33,879 
61 COLWilliam PulidoCOLRyalcao-Postobon03:29:52  +  00:05:21=33,879 
62 NORAtle KvålsvollFRAZ-Peugeot03:29:52  +  00:05:21=33,879 
63 COLCarlos JaramilloCOLRyalcao-Postobon03:29:52  +  00:05:21=33,879 
64 ESPVicente RidauraFRASeur03:29:52  +  00:05:21=33,879 
65 AUSStephen HodgeESPO.N.C.E.03:29:52  +  00:05:21=33,879 
66 URSIvan IvanovITAAlfa Lum03:29:52  +  00:05:21=33,879 
67 FRAFrédéric BrunFRAR.M.O.-Mavic-Liberia03:30:14  +  00:05:43=33,820 
68 COLPablo HernandezCOLRyalcao-Postobon03:30:35  +  00:06:04=33,763 
69 NEDMaarten DucrotNLDTVM03:30:50  +  00:06:19=33,723 
70 FRARoland Le ClercNLDToshiba03:30:59  +  00:06:28=33,699 
71 NEDPeter WinnenNLDBuckler03:31:03  +  00:06:32=33,689 
72 BELPatrick RobeetCHEWeinmann-La Suisse-S.M.M. Uste..03:31:17  +  00:06:46=33,651 
73 NEDGerrit De VriesNLDBuckler03:32:04  +  00:07:33=33,527 
74 FRAChristophe LavainneFRACastorama-Raleigh03:33:31  +  00:09:00=33,300 
75 COLJuan CastilloCOLRyalcao-Postobon03:33:31  +  00:09:00=33,300 
76 ITAAlberto ElliITAAriostea03:33:31  +  00:09:00=33,300 
77 FRADenis RouxNLDToshiba03:33:31  +  00:09:00=33,300 
78 FRAPhilippe LouviotNLDToshiba03:33:31  +  00:09:00=33,300 
79 FRAJean-Claude ColottiFRAR.M.O.-Mavic-Liberia03:34:38  +  00:10:07=33,126 
80 SUIHans-Rüdi MärkiCHEHelvetia-La Suisse03:34:38  +  00:10:07=33,126 
81 BELPaul HaghedoorenBELHistor-Sigma03:34:38  +  00:10:07=33,126 
82 PORJosé FerreiraFRASeur03:34:38  +  00:10:07=33,126 
83 ESPJosé UreaFRASeur03:34:38  +  00:10:07=33,126 
84 ESPHerminio ZabalaESPO.N.C.E.03:34:38  +  00:10:07=33,126 
85 NORDag Otto LauritzenUSA7-Eleven-Hoonved03:34:38  +  00:10:07=33,126 
86 URSViatcheslav EkimovNLDPanasonic-Sportlife03:34:38  +  00:10:07=33,126 
87 ITAAlessandro GiannelliITACarrera Jeans-Vagabond03:34:38  +  00:10:07=33,126 
88 DDRMario KummerITAChateau d'Ax03:34:38  +  00:10:07=33,126 
89 FRALaurent PillonBELHistor-Sigma03:34:38  +  00:10:07=33,126 
90 ENGPhil AndersonNLDTVM03:34:38  +  00:10:07=33,126 
91 ESPLuis LukinESPBanesto03:34:38  +  00:10:07=33,126 
92 FRAJean-François BernardNLDToshiba03:34:38  +  00:10:07=33,126 
93 ITAFlavio GiupponiITACarrera Jeans-Vagabond03:34:38  +  00:10:07=33,126 
94 ESPMelchor MauriESPO.N.C.E.03:34:38  +  00:10:07=33,126 
95 USARonald KiefelUSA7-Eleven-Hoonved03:34:38  +  00:10:07=33,126 
96 BELMarc SergeantNLDPanasonic-Sportlife03:34:38  +  00:10:07=33,126 
97 ESPJuan MartinezESPBanesto03:34:38  +  00:10:07=33,126 
98 SUIMauro GianettiCHEHelvetia-La Suisse03:34:38  +  00:10:07=33,126 
99 FRALuc LeblancFRACastorama-Raleigh03:34:38  +  00:10:07=33,126 
100 ESPMarino MonjeESPBanesto03:34:38  +  00:10:07=33,126 
101 BELCarlo BomansCHEWeinmann-La Suisse-S.M.M. Uste..03:35:12  +  00:10:41=33,039 
102 SUIKurt SteinmannCHEWeinmann-La Suisse-S.M.M. Uste..03:35:32  +  00:11:01=32,988 
103 DDRJan SchurITAChateau d'Ax03:35:32  +  00:11:01=32,988 
104 BELJos HaexBELLotto-Superclub03:35:45  +  00:11:14=32,955 
105 BELPatrick VerschuerenBELLotto-Superclub03:35:45  +  00:11:14=32,955 
106 BELJohan MuseeuwBELLotto-Superclub03:35:45  +  00:11:14=32,955 
107 BELPeter RoesBELLotto-Superclub03:35:45  +  00:11:14=32,955 
108 BELWillem Van EyndeBELLotto-Superclub03:35:45  +  00:11:14=32,955 
109 ITAGuiseppe CalcaterraITAChateau d'Ax03:35:45  +  00:11:14=32,955 
110 NEDGerrit SolleveldNLDBuckler03:35:45  +  00:11:14=32,955 
111 ENGSean YatesUSA7-Eleven-Hoonved03:36:55  +  00:12:24=32,778 
112 NEDEdwig Van HooydonckNLDBuckler03:37:44  +  00:13:13=32,655 
113 NEDPatrick TolhoekNLDBuckler03:37:44  +  00:13:13=32,655 
114 BELJan GoessensCHEWeinmann-La Suisse-S.M.M. Uste..03:38:11  +  00:13:40=32,587 
115 FRAGilbert Duclos-LassalleFRAZ-Peugeot03:38:12  +  00:13:41=32,585 
116 DENBrian HolmBELHistor-Sigma03:38:12  +  00:13:41=32,585 
117 ITAMarcello SiboniITAAriostea03:38:12  +  00:13:41=32,585 
118 BELMichel DerniesCHEWeinmann-La Suisse-S.M.M. Uste..03:38:12  +  00:13:41=32,585 
119 FRAFrançois LemarchandFRAZ-Peugeot03:38:12  +  00:13:41=32,585 
120 FRAThierry LaurentFRAR.M.O.-Mavic-Liberia03:38:12  +  00:13:41=32,585 
121 DENSøren LilholtBELHistor-Sigma03:38:12  +  00:13:41=32,585 
122 ITAValerio PivaITAAriostea03:38:12  +  00:13:41=32,585 
123 ITABruno CenghialtaITAAriostea03:38:12  +  00:13:41=32,585 
124 DDRUwe RaabNLDPDM-Concorde03:38:12  +  00:13:41=32,585 
125 ITAAlberto VolpiITAChateau d'Ax03:38:12  +  00:13:41=32,585 
126 ITARoberto GusmeroliITAChateau d'Ax03:38:12  +  00:13:41=32,585 
127 DENJohnny WeltzESPO.N.C.E.03:38:12  +  00:13:41=32,585 
128 USABob RollUSA7-Eleven-Hoonved03:38:32  +  00:14:01=32,535 
129 ESPAntonio DiasESPKelme-Ibexpress03:38:33  +  00:14:02=32,533 
130 NEDHenri MandersCHEHelvetia-La Suisse03:38:38  +  00:14:07=32,520 
131 BELPatrick JacobsNLDTVM03:38:38  +  00:14:07=32,520 
132 USANorman AlvisUSA7-Eleven-Hoonved03:38:50  +  00:14:19=32,490 
133 NEDMartin SchalkersNLDTVM03:38:59  +  00:14:28=32,468 
134 DENTony RomingerITAChateau d'Ax03:39:06  +  00:14:35=32,451 
135 SUIThomas WegmüllerCHEWeinmann-La Suisse-S.M.M. Uste..03:39:06  +  00:14:35=32,451 
136 ITAGiuseppe SaronniESPKelme-Ibexpress03:39:06  +  00:14:35=32,451 
137 BELMichel VermoteFRAR.M.O.-Mavic-Liberia03:39:20  +  00:14:49=32,416 
138 BELWilfried PeetersBELHistor-Sigma03:39:20  +  00:14:49=32,416 
139 DENJesper SkibbyNLDTVM03:39:20  +  00:14:49=32,416 
140 BELPeter De ClercqBELLotto-Superclub03:39:20  +  00:14:49=32,416 
141 ITAGiancarlo PeriniITACarrera Jeans-Vagabond03:39:20  +  00:14:49=32,416 
142 FRAJean-Claude LeclercqCHEHelvetia-La Suisse03:39:20  +  00:14:49=32,416 
143 FRAVincent BarteauFRACastorama-Raleigh03:39:20  +  00:14:49=32,416 
144 ITADavide CassaniITAAriostea03:39:20  +  00:14:49=32,416 
145 FRAThierry MarieFRACastorama-Raleigh03:39:20  +  00:14:49=32,416 
146 SUIErich MächlerITACarrera Jeans-Vagabond03:39:20  +  00:14:49=32,416 
147 ITAMauro-Antonio SantaromitaITAChateau d'Ax03:39:20  +  00:14:49=32,416 
148 ITAGuido BontempiITACarrera Jeans-Vagabond03:39:20  +  00:14:49=32,416 
149 ENGMaximilian SciandriITACarrera Jeans-Vagabond03:39:20  +  00:14:49=32,416 
150 PORAcacio da SilvaITACarrera Jeans-Vagabond03:39:20  +  00:14:49=32,416 
151 USAAndrew BishopUSA7-Eleven-Hoonved03:39:20  +  00:14:49=32,416 
152 GERAndreas KappesNLDToshiba03:39:20  +  00:14:49=32,416 
153 ESPPablo MorenoFRASeur03:39:20  +  00:14:49=32,416 
154 NEDToine PoelsNLDBuckler03:39:20  +  00:14:49=32,416 
155 NEDJean-Paul van PoppelNLDPanasonic-Sportlife03:39:20  +  00:14:49=32,416 
156 NEDGert JakobsNLDPDM-Concorde03:39:45  +  00:15:14=32,355 
157 FRAFrancis MoreauBELHistor-Sigma03:40:25  +  00:15:54=32,257 
158 URSSergei UslaminITAAlfa Lum03:40:51  +  00:16:20=32,194 
159 BELEric VanderaerdenNLDBuckler03:40:51  +  00:16:20=32,194 
160 FRAChristian ChaubetNLDToshiba03:40:55  +  00:16:24=32,184 
161 ITAMassimo GhirottoITACarrera Jeans-Vagabond03:41:02  +  00:16:31=32,167 
162 ITAAdriano BaffiITAAriostea03:41:02  +  00:16:31=32,167 
163 NEDAdri Van Der PoelCHEWeinmann-La Suisse-S.M.M. Uste..03:41:02  +  00:16:31=32,167 
164 ITAGiovanni FidanzaITAChateau d'Ax03:41:02  +  00:16:31=32,167 
165 URSNikolai GolovatenkoITAAlfa Lum03:41:02  +  00:16:31=32,167 
166 NEDJelle NijdamNLDBuckler03:41:02  +  00:16:31=32,167 
167 ITARodolfo MassiITAAriostea03:41:02  +  00:16:31=32,167 
168 NEDJan SiemonsNLDTVM03:41:02  +  00:16:31=32,167 
169 SUIOthmar HäfligerCHEHelvetia-La Suisse03:41:56  +  00:17:25=32,037 
170 URSAlexandre TrubineITAAlfa Lum03:42:19  +  00:17:48=31,981 
171 ESPJesús RosadoESPKelme-Ibexpress03:42:19  +  00:17:48=31,981 
172 BELHendrik RedantBELLotto-Superclub03:43:39  +  00:19:08=31,791 
173 SUIAlfred AckermannCHEWeinmann-La Suisse-S.M.M. Uste..03:43:49  +  00:19:18=31,767 
174 BELJean-Pierre HeynderickxFRASeur03:44:46  +  00:20:15=31,633 
175 DDROlaf LudwigNLDPanasonic-Sportlife03:44:46  +  00:20:15=31,633 
176 ESPAntonio EspejoESPKelme-Ibexpress03:45:31  +  00:21:00=31,528 
177 FRAÉric CaritouxFRAR.M.O.-Mavic-Liberia03:48:27  +  00:23:56=31,123 
178 URSVasily ZhdanovITAAlfa Lum03:48:35  +  00:24:04=31,105 
179 USADavis PhinneyUSA7-Eleven-Hoonved03:48:35  +  00:24:04=31,105 
180 URSDjamolidine AbduzhaparovITAAlfa Lum03:48:51  +  00:24:20=31,068 
181 URSAsiat SaitovITAAlfa Lum03:48:51  +  00:24:20=31,068 
182 IRLMartin EarleyNLDPDM-Concorde03:49:24  +  00:24:53=30,994 

Withdrawls: 3
 
Rider
Team
Reason
18  FRAGérard RuéFRACastorama-RaleighDid not finish
24  ESPJulian GorospeESPBanestoDid not finish
167  NEDEddy SchurerNLDTVMDid not finish

Todays birthdays.

1877  Antoine Perrichon
1878  Auguste Berthault
1911  Théo Herckenrath
1924  Carlo Lafranchi
1931  Armand Di Caro
1937  Jean-Claude Lebaube
1951  Giovanni Battaglin
1961  Pascal Jules
1962  Jean-Claude Leclercq
1976  Janek Tombak
1978  Francisco Pérez
1983  Dries Devenyns




Visits: